Content
SEND FEEDBACK

Daily
Averages
Monthly
Summary
United States of America

DEWEY, UTAH


Home > North America > United States > Utah
Elevation: 4438 feet     Latitude: 38 48N     Longitude: 109 18W

WEATHER
 
SELECT A DAY
Number of Records: 145,215;   Date Range: 1/3/95 - 9/18/14
 
SHARE

PRINT THIS DATA

[ ← Previous Day ]
WEATHER ALMANAC - JANUARY 31, 2013
[ Next Day → ]
[ °C ]   °F
Weather ElementAverageHighLow
Temperature27.1 °F37.9 °F (1:53 pm)17.1 °F (5:53 am)
Dewpoint21.2 °F26.1 °F (2:53 pm)12.9 °F (6:53 am)
Humidity79.6 %92 % (2:53 am)57 % (1:53 pm)
Barometer30.36 in30.43 in (8:53 am)30.27 in (1:53 am)
Wind Speed3.1 mph9.2 mph (5:53 am)
Weather ElementAverage
Visibility10 mi
Wind DirectionESE (102.2 °)

Weather ElementTotal
Precipitation---
Heating Degree Days37.5 (Base 65)
Averaged from 23 records on January 31, 2013
WEATHER CONDITIONS BREAKOUT
WIND DIRECTION BREAKOUT
WEATHER BY HOUR - JANUARY 31, 2013
[ °C ]   °F
Local TimeTemperatureDewpointHumidityBarometerVisibilityWind DirectionWind SpeedGust SpeedPrecipitationEventsConditions
1:53 AM21.9 °F19.0 °F89 %30.27 in10.0 miCalmClear
2:53 AM19.0 °F17.1 °F92 %30.30 in10.0 miWest (260°)5.8 mphClear
3:53 AM21.0 °F17.1 °F85 %30.29 in10.0 miCalmClear
4:53 AM21.9 °F18.0 °F85 %30.30 in10.0 miCalmClear
5:53 AM17.1 °F14.0 °F88 %30.35 in10.0 miNW (320°)9.2 mphClear
6:53 AM17.1 °F12.9 °F84 %30.38 in10.0 miNW (320°)3.5 mphClear
7:53 AM19.0 °F15.1 °F85 %30.39 in10.0 miCalmClear
8:53 AM23.0 °F19.0 °F85 %30.43 in10.0 miENE (60°)4.6 mphClear
9:53 AM28.0 °F21.9 °F78 %30.42 in10.0 miESE (120°)3.5 mphClear
10:53 AM32.0 °F23.0 °F69 %30.42 in10.0 miSSE (150°)5.8 mphClear
11:53 AM35.1 °F24.1 °F64 %30.38 in10.0 miSE (140°)4.6 mphClear
12:53 PM36.0 °F24.1 °F62 %30.36 in10.0 miSE (140°)5.8 mphClear
1:53 PM37.9 °F24.1 °F57 %30.33 in10.0 miCalmClear
2:53 PM37.9 °F26.1 °F62 %30.32 in10.0 miSE (140°)3.5 mphClear
3:53 PM37.9 °F26.1 °F62 %30.31 in10.0 miCalmClear
4:53 PM33.1 °F26.1 °F75 %30.33 in10.0 miNW (320°)9.2 mphClear
5:53 PM30.9 °F25.0 °F79 %30.36 in10.0 miNNW (330°)8.1 mphClear
6:53 PM28.9 °F24.1 °F82 %30.38 in10.0 miVariable3.5 mphClear
7:53 PM27.0 °F24.1 °F89 %30.39 in10.0 miCalmClear
8:53 PM24.1 °F21.9 °F91 %30.38 in10.0 miCalmClear
9:53 PM24.1 °F21.9 °F91 %30.38 in10.0 miNE (50°)4.6 mphClear
10:53 PM28.0 °F24.1 °F85 %30.35 in10.0 miCalmClear
11:53 PM21.9 °F19.9 °F92 %30.35 in10.0 miCalmClear
Hourly data recorded from KCNY, located miles away from Dewey, Utah







STORIES FROM OUR PARTNERS